Torna al catalogo

GEN1A-2

AttivoScienzaSSO
NORAD 69005·PAYLOAD·🇺🇸 United States

Lanciato May 3, 2026 da Vandenberg Space Force Base

Loading…

Prossimi Passaggi (prossime 24 ore)

TLE

AggiornatoSource: Space-Track

Epoca: Sep 14, 2026, 15:47 UTC

1 69005U 26100AB  26257.65767875  .00002817  00000-0  13086-3 0  9991
2 69005  97.3902 153.8050 0006834  70.9374 289.2601 15.20790260 20412

Traccia GEN1A-2 in tempo reale con AllMySat

Download on the App Store